カタログに戻る

FENGYUN 1C DEB

運用中SSO
NORAD 31841·DEBRIS·🇨🇳 China

打ち上げ May 10, 1999 から Taiyuan Satellite Launch Center

Loading…

次のパス (今後24時間)

TLE

経年Source: Space-Track

元期: Sep 9, 2026, 17:12 UTC

1 31841U 99025CJF 26252.71699630  .00002433  00000-0  10094-2 0  9998
2 31841  98.4452  47.8217 0301627 256.3934 115.7811 14.05647508631443

AllMySatでFENGYUN 1C DEBをリアルタイム追跡

Download on the App Store